Santa Fe, NM

3:14 PM MST on December 13, 2019 (GMT -0700)
Santa Fe Municipal

Weather History for KSAF - July, 2019

Change the Weather History Date:

Monday, July 15, 2019

  Actual Average Record
Temperature  
Mean Temperature 74 °F -  
Max Temperature 91 °F 90 °F 97 °F (2010)
Min Temperature 59 °F 54 °F 51 °F (2002)
Cooling Degree Days 10    
Growing Degree Days 24 (Base 50)    
Moisture  
Dew Point 52 °F    
Average Humidity 51    
Maximum Humidity 90    
Minimum Humidity 21    
Precipitation  
Precipitation 0.01 in - - ()
Sea Level Pressure  
Sea Level Pressure 29.89 in    
Wind  
Wind Speed 10 mph (North)    
Max Wind Speed 14 mph    
Max Gust Speed 20 mph    
Visibility 10 miles    
Events Rain    
Averages and records for this station are not official NWS values.
T = Trace of Precipitation, MM = Missing Value Source: NWS Daily Summary

Daily Weather History Graph

Daily Weather History Graph

Search for Another Location

Airport or City:

Astronomy

Jul. 15, 2019 Rise Set
Actual Time 6:00 AM MDT 8:20 PM MDT
Civil Twilight 5:30 AM MDT 8:49 PM MDT
Nautical Twilight 4:54 AM MDT 9:25 PM MDT
Astronomical Twilight 4:15 AM MDT 10:04 PM MDT
Moon 7:39 PM MDT (7/15) 4:50 AM MDT (7/15)
Length of Visible Light 15h 18m
Length of Day
14h 20m
Waxing Gibbous, 99% of the Moon is Illuminated
Jul 15
Waxing Gibbous
Jul 16
Full
Jul 24
Last Quarter
Jul 31
New
Aug 7
First Quarter

Hourly Weather History & Observations

Time (MDT) Temp. Heat Index Dew Point Humidity Pressure Visibility Wind Dir Wind Speed Gust Speed Precip Events Conditions
12:53 AM 66.0 °F - 57.0 °F 73% 29.95 in 10.0 mi East 10.4 mph - 0.00 in Rain Light Rain
1:53 AM 66.9 °F - 55.0 °F 66% 29.91 in 10.0 mi NNW 9.2 mph - 0.01 in   Mostly Cloudy
2:53 AM 64.0 °F - 57.0 °F 78% 29.93 in 10.0 mi NNW 10.4 mph - 0.00 in   Scattered Clouds
3:53 AM 62.1 °F - 57.0 °F 84% 29.93 in 10.0 mi North 12.7 mph - N/A   Clear
4:53 AM 60.1 °F - 57.0 °F 90% 29.94 in 10.0 mi North 12.7 mph - N/A   Clear
5:53 AM 59.0 °F - 55.9 °F 90% 29.96 in 10.0 mi North 11.5 mph - N/A   Clear
6:53 AM 60.1 °F - 55.9 °F 86% 29.97 in 10.0 mi North 12.7 mph - N/A   Clear
7:53 AM 64.9 °F - 55.9 °F 73% 30.01 in 10.0 mi North 12.7 mph - N/A   Clear
8:53 AM 68.0 °F - 55.9 °F 65% 30.01 in 10.0 mi North 13.8 mph - N/A   Clear
9:53 AM 73.0 °F - 57.0 °F 57% 29.98 in 10.0 mi North 10.4 mph - N/A   Clear
10:53 AM 79.0 °F - 55.0 °F 44% 29.94 in 10.0 mi North 9.2 mph - N/A   Clear
11:53 AM 82.0 °F 81.6 °F 55.9 °F 41% 29.92 in 10.0 mi NNW 10.4 mph - N/A   Clear
12:53 PM 84.0 °F 82.5 °F 53.1 °F 34% 29.90 in 10.0 mi North 8.1 mph 18.4 mph N/A   Clear
1:53 PM 89.1 °F - 48.0 °F 24% 29.84 in 10.0 mi North 13.8 mph 19.6 mph N/A   Clear
2:53 PM 90.0 °F - 45.0 °F 21% 29.83 in 10.0 mi NNE 12.7 mph 16.1 mph N/A   Clear
3:53 PM 86.0 °F - 46.9 °F 26% 29.83 in 10.0 mi West 5.8 mph - N/A   Clear
4:53 PM 87.1 °F - 46.0 °F 24% 29.81 in 10.0 mi SW 5.8 mph - N/A   Clear
5:53 PM 88.0 °F - 45.0 °F 22% 29.79 in 10.0 mi Variable 4.6 mph - N/A   Clear
6:53 PM 84.0 °F - 48.0 °F 28% 29.81 in 10.0 mi WSW 10.4 mph - N/A   Clear
7:53 PM 81.0 °F - 48.9 °F 33% 29.82 in 10.0 mi WNW 12.7 mph - N/A   Partly Cloudy
8:53 PM 79.0 °F - 48.0 °F 34% 29.82 in 10.0 mi West 8.1 mph - N/A   Clear
9:53 PM 75.9 °F - 48.0 °F 37% 29.85 in 10.0 mi North 6.9 mph - 0.00 in   Scattered Clouds
10:53 PM 73.9 °F - 51.1 °F 45% 29.85 in 10.0 mi East 4.6 mph - N/A   Clear
11:53 PM 73.9 °F - 48.9 °F 41% 29.84 in 10.0 mi ESE 10.4 mph - N/A   Clear